Newport News, VA

11:50 PM EDT on October 21, 2017 (GMT -0400)
Newport News-Williamsburg International

Weather History for KPHF - April, 2013

Change the Weather History Date:

Friday, April 19, 2013

  Actual Average Record
Temperature  
Mean Temperature 75 °F -  
Max Temperature 88 °F 74 °F 89 °F (2002)
Min Temperature 66 °F 51 °F 28 °F (1956)
Cooling Degree Days 10    
Growing Degree Days 25 (Base 50)    
Moisture  
Dew Point 62 °F    
Average Humidity 68    
Maximum Humidity 81    
Minimum Humidity 43    
Precipitation  
Precipitation 0.21 in - - ()
Sea Level Pressure  
Sea Level Pressure 29.90 in    
Wind  
Wind Speed 14 mph (SSW)    
Max Wind Speed 29 mph    
Max Gust Speed 39 mph    
Visibility 9 miles    
Events Rain    
Averages and records for this station are not official NWS values.
T = Trace of Precipitation, MM = Missing Value Source: NWS Daily Summary

Daily Weather History Graph

Daily Weather History Graph

Search for Another Location

Airport or City:

Trip Planner

Search our weather history database for the weather conditions in past years. The results will help you decide how hot, cold, wet, or windy it might be!

Date:

Astronomy

Apr. 19, 2013 Rise Set
Actual Time 6:25 AM EDT 7:44 PM EDT
Civil Twilight 5:58 AM EDT 8:11 PM EDT
Nautical Twilight 5:26 AM EDT 8:44 PM EDT
Astronomical Twilight 4:52 AM EDT 9:18 PM EDT
Moon 1:35 PM EDT (4/19) 2:31 AM EDT (4/19)
Length of Visible Light 14h 13m
Length of Day
13h 18m
First Quarter, 61% of the Moon is Illuminated
Apr 19
First Quarter
Apr 25
Full
May 2
Last Quarter
May 9
New
May 18
First Quarter

Hourly Weather History & Observations

Time (EDT) Temp. Heat Index Dew Point Humidity Pressure Visibility Wind Dir Wind Speed Gust Speed Precip Events Conditions
12:54 AM 68.0 °F - 57.9 °F 70% 30.06 in 10.0 mi South 9.2 mph - N/A   Clear
1:54 AM 66.9 °F - 57.9 °F 73% 30.04 in 10.0 mi South 9.2 mph - N/A   Clear
2:54 AM 66.9 °F - 59.0 °F 76% 30.00 in 10.0 mi South 10.4 mph - N/A   Clear
3:54 AM 66.9 °F - 59.0 °F 76% 29.99 in 10.0 mi South 10.4 mph - N/A   Clear
4:54 AM 66.9 °F - 60.1 °F 79% 29.97 in 10.0 mi South 10.4 mph - N/A   Scattered Clouds
5:14 AM 68.0 °F - 60.8 °F 78% 29.97 in 10.0 mi South 9.2 mph - N/A   Mostly Cloudy
5:50 AM 68.0 °F - 60.8 °F 78% 29.97 in 10.0 mi South 11.5 mph - N/A   Mostly Cloudy
5:54 AM 68.0 °F - 61.0 °F 78% 29.97 in 10.0 mi South 11.5 mph - N/A   Mostly Cloudy
6:30 AM 69.8 °F - 60.8 °F 73% 29.98 in 10.0 mi South 10.4 mph - N/A   Mostly Cloudy
6:54 AM 69.1 °F - 62.1 °F 78% 29.97 in 7.0 mi SSE 11.5 mph - 0.00 in Rain Light Rain
7:08 AM 69.8 °F - 62.6 °F 78% 29.97 in 10.0 mi South 11.5 mph - 0.00 in   Overcast
7:54 AM 70.0 °F - 63.0 °F 78% 29.96 in 10.0 mi South 10.4 mph 21.9 mph 0.00 in   Overcast
8:04 AM 69.8 °F - 62.6 °F 78% 29.96 in 10.0 mi South 12.7 mph 23.0 mph N/A   Overcast
8:27 AM 71.6 °F - 62.6 °F 73% 29.96 in 10.0 mi South 13.8 mph - N/A   Overcast
8:40 AM 71.6 °F - 64.4 °F 78% 29.95 in 10.0 mi South 15.0 mph 21.9 mph N/A   Overcast
8:49 AM 73.4 °F - 64.4 °F 73% 29.95 in 10.0 mi South 13.8 mph 21.9 mph N/A   Overcast
8:54 AM 73.0 °F - 64.0 °F 73% 29.95 in 10.0 mi SSW 12.7 mph - N/A   Overcast
9:41 AM 73.4 °F - 62.6 °F 69% 29.94 in 10.0 mi SSW 15.0 mph 23.0 mph N/A   Mostly Cloudy
9:54 AM 75.0 °F - 64.0 °F 69% 29.94 in 10.0 mi SSW 13.8 mph 20.7 mph N/A   Overcast
10:35 AM 77.0 °F - 62.6 °F 61% 29.94 in 10.0 mi SSW 21.9 mph 29.9 mph N/A   Mostly Cloudy
10:54 AM 78.1 °F - 63.0 °F 60% 29.93 in 10.0 mi South 19.6 mph 25.3 mph N/A   Mostly Cloudy
11:54 AM 80.1 °F 81.5 °F 63.0 °F 56% 29.91 in 10.0 mi SSW 20.7 mph 27.6 mph N/A   Mostly Cloudy
12:54 PM 84.9 °F 85.4 °F 62.1 °F 46% 29.88 in 10.0 mi SSW 21.9 mph 29.9 mph N/A   Scattered Clouds
1:54 PM 84.9 °F 84.8 °F 60.1 °F 43% 29.84 in 10.0 mi SSW 21.9 mph 32.2 mph N/A   Scattered Clouds
2:54 PM 84.9 °F 84.8 °F 60.1 °F 43% 29.80 in 10.0 mi SSW 19.6 mph 31.1 mph N/A   Clear
3:54 PM 84.9 °F 85.4 °F 62.1 °F 46% 29.77 in 10.0 mi South 28.8 mph 39.1 mph N/A   Clear
4:54 PM 82.9 °F 84.0 °F 63.0 °F 51% 29.76 in 10.0 mi SSW 23.0 mph 29.9 mph N/A   Mostly Cloudy
5:54 PM 82.0 °F 83.4 °F 64.0 °F 54% 29.75 in 10.0 mi SSW 23.0 mph 34.5 mph N/A   Scattered Clouds
6:54 PM 81.0 °F 82.2 °F 63.0 °F 54% 29.74 in 10.0 mi SSW 25.3 mph 35.7 mph N/A   Partly Cloudy
7:54 PM 80.1 °F 81.5 °F 63.0 °F 56% 29.76 in 10.0 mi SSW 24.2 mph 31.1 mph N/A   Mostly Cloudy
8:54 PM 78.1 °F - 63.0 °F 60% 29.78 in 10.0 mi SSW 18.4 mph 29.9 mph N/A   Partly Cloudy
9:52 PM 73.4 °F - 64.4 °F 73% 29.82 in 2.5 mi SW 20.7 mph 32.2 mph 0.09 in Rain Light Rain
9:53 PM 73.0 °F - 64.9 °F 76% 29.82 in 2.5 mi SW 26.5 mph 35.7 mph 0.09 in Rain Light Rain
10:00 PM 71.6 °F - 62.6 °F 73% 29.82 in 7.0 mi SSW 24.2 mph 35.7 mph 0.01 in Rain Light Rain
10:54 PM 70.0 °F - 64.0 °F 81% 29.81 in 6.0 mi SSW 15.0 mph 21.9 mph 0.09 in Rain Light Rain
11:54 PM 69.1 °F - 62.1 °F 78% 29.81 in 9.0 mi SSW 12.7 mph - 0.03 in Rain Light Rain